TimeCDT,TemperatureF,Dew PointF,Humidity,Sea Level PressureIn,VisibilityMPH,Wind Direction,Wind SpeedMPH,Gust SpeedMPH,PrecipitationIn,Events,Conditions,WindDirDegrees,DateUTC
12:38 AM,46.4,46.4,100,29.89,0.8,ESE,4.6,-,N/A,,Clear,110,2011-10-12 05:38:00
12:42 AM,46.4,46.4,100,29.89,1.0,ESE,4.6,-,N/A,,Clear,110,2011-10-12 05:42:00
12:46 AM,46.4,46.4,100,29.89,0.8,East,3.5,-,N/A,,Clear,100,2011-10-12 05:46:00
12:53 AM,46.4,46.4,100,29.88,0.5,East,5.8,-,N/A,Fog,Fog,100,2011-10-12 05:53:00
12:55 AM,46.4,46.4,100,29.88,0.5,East,5.8,-,N/A,Fog,Fog,100,2011-10-12 05:55:00
1:11 AM,46.4,46.4,100,29.88,0.2,East,5.8,-,N/A,Fog,Fog,100,2011-10-12 06:11:00
1:24 AM,46.4,46.4,100,29.88,0.5,ESE,4.6,-,N/A,Fog,Fog,120,2011-10-12 06:24:00
1:27 AM,46.4,46.4,100,29.88,0.8,ESE,3.5,-,N/A,,Clear,120,2011-10-12 06:27:00
1:29 AM,46.4,46.4,100,29.88,1.0,ESE,3.5,-,N/A,,Clear,120,2011-10-12 06:29:00
1:30 AM,46.4,46.4,100,29.88,1.2,ESE,4.6,-,N/A,,Clear,120,2011-10-12 06:30:00
1:31 AM,46.4,46.4,100,29.88,1.8,ESE,4.6,-,N/A,,Clear,120,2011-10-12 06:31:00
1:32 AM,46.4,46.4,100,29.88,3.0,ESE,4.6,-,N/A,,Clear,120,2011-10-12 06:32:00
1:53 AM,46.4,46.4,100,29.88,2.0,SE,4.6,-,N/A,,Clear,140,2011-10-12 06:53:00
1:54 AM,46.4,46.4,100,29.88,1.8,SE,4.6,-,N/A,,Clear,140,2011-10-12 06:54:00
1:55 AM,46.2,46.2,100,29.88,1.5,SE,4.6,-,N/A,,Clear,140,2011-10-12 06:55:00
1:57 AM,46.4,46.4,100,29.88,1.2,SE,3.5,-,N/A,,Clear,130,2011-10-12 06:57:00
1:58 AM,46.4,46.4,100,29.88,1.0,SE,3.5,-,N/A,,Clear,130,2011-10-12 06:58:00
1:59 AM,46.4,46.4,100,29.88,0.8,SE,3.5,-,N/A,,Clear,130,2011-10-12 06:59:00
2:05 AM,46.4,46.4,100,29.88,0.5,SE,3.5,-,N/A,Fog,Fog,140,2011-10-12 07:05:00
2:17 AM,44.6,44.6,100,29.88,1.0,SE,4.6,-,N/A,,Clear,140,2011-10-12 07:17:00
2:18 AM,44.6,44.6,100,29.88,1.2,SE,4.6,-,N/A,,Clear,140,2011-10-12 07:18:00
2:20 AM,44.6,44.6,100,29.88,1.5,SE,4.6,-,N/A,,Clear,140,2011-10-12 07:20:00
2:25 AM,44.6,44.6,100,29.88,1.8,SE,4.6,-,N/A,,Clear,140,2011-10-12 07:25:00
2:27 AM,44.6,44.6,100,29.88,2.0,SE,4.6,-,N/A,,Clear,140,2011-10-12 07:27:00
2:28 AM,44.6,44.6,100,29.88,2.5,SE,4.6,-,N/A,,Clear,140,2011-10-12 07:28:00
2:31 AM,44.6,44.6,100,29.88,2.0,SE,3.5,-,N/A,,Clear,130,2011-10-12 07:31:00
2:32 AM,44.6,44.6,100,29.88,1.8,SE,3.5,-,N/A,,Clear,130,2011-10-12 07:32:00
2:33 AM,44.6,44.6,100,29.88,1.2,SE,3.5,-,N/A,,Clear,130,2011-10-12 07:33:00
2:34 AM,46.4,46.4,100,29.88,1.0,SE,3.5,-,N/A,,Clear,130,2011-10-12 07:34:00
2:35 AM,46.4,46.4,100,29.88,0.8,SE,3.5,-,N/A,,Clear,130,2011-10-12 07:35:00
2:37 AM,46.4,46.4,100,29.88,0.5,Calm,Calm,-,N/A,Fog,Fog,0,2011-10-12 07:37:00
2:41 AM,46.4,46.4,100,29.88,0.2,Calm,Calm,-,N/A,Fog,Fog,0,2011-10-12 07:41:00
2:55 AM,46.2,46.2,100,29.87,0.2,ESE,3.5,-,N/A,Fog,Fog,120,2011-10-12 07:55:00
3:22 AM,44.6,44.6,100,29.86,0.5,Calm,Calm,-,N/A,Fog,Fog,0,2011-10-12 08:22:00
3:32 AM,44.6,44.6,100,29.86,0.2,Calm,Calm,-,N/A,Fog,Fog,0,2011-10-12 08:32:00
3:34 AM,44.6,44.6,100,29.86,0.2,Calm,Calm,-,N/A,Fog,Fog,0,2011-10-12 08:34:00
3:43 AM,44.6,44.6,100,29.86,0.2,Calm,Calm,-,N/A,Fog,Fog,0,2011-10-12 08:43:00
3:55 AM,46.6,46.6,100,29.86,0.2,ESE,3.5,-,0.00,Fog,Fog,110,2011-10-12 08:55:00
4:00 AM,46.4,46.4,100,29.86,0.2,ESE,3.5,-,N/A,Fog,Fog,110,2011-10-12 09:00:00
4:02 AM,46.4,46.4,100,29.86,0.5,Calm,Calm,-,N/A,Fog,Fog,0,2011-10-12 09:02:00
4:18 AM,46.4,46.4,100,29.86,0.5,East,3.5,-,N/A,Fog,Fog,90,2011-10-12 09:18:00
4:24 AM,44.6,44.6,100,29.86,0.2,East,3.5,-,N/A,Fog,Fog,100,2011-10-12 09:24:00
4:55 AM,46.4,46.4,100,29.86,0.2,SSE,3.5,-,N/A,Fog,Fog,150,2011-10-12 09:55:00
5:55 AM,46.4,46.4,100,29.85,0.2,ESE,4.6,-,N/A,Fog,Fog,120,2011-10-12 10:55:00
6:23 AM,48.2,48.2,100,29.85,0.2,Calm,Calm,-,N/A,Fog,Fog,0,2011-10-12 11:23:00
6:55 AM,48.2,48.2,100,29.86,0.2,Calm,Calm,-,N/A,Fog,Fog,0,2011-10-12 11:55:00
7:55 AM,50.0,50.0,100,29.86,0.2,ESE,3.5,-,N/A,Fog,Fog,110,2011-10-12 12:55:00
8:55 AM,51.8,51.8,100,29.84,0.2,East,4.6,-,N/A,Fog,Fog,100,2011-10-12 13:55:00
9:30 AM,53.6,53.6,100,29.82,0.2,ESE,3.5,-,N/A,Fog,Fog,120,2011-10-12 14:30:00
9:37 AM,55.4,55.4,100,29.82,0.4,ESE,3.5,-,N/A,Fog,Fog,120,2011-10-12 14:37:00
9:50 AM,55.4,55.4,100,29.82,0.5,ESE,3.5,-,N/A,Fog,Fog,120,2011-10-12 14:50:00
9:55 AM,57.2,57.2,100,29.83,0.8,ESE,3.5,-,N/A,,Mist,120,2011-10-12 14:55:00
10:02 AM,57.2,57.2,100,29.82,1.5,Variable,4.6,-,N/A,,Mostly Cloudy,0,2011-10-12 15:02:00
10:12 AM,57.2,57.2,100,29.82,1.8,Variable,3.5,-,N/A,,Mostly Cloudy,0,2011-10-12 15:12:00
10:21 AM,57.2,57.2,100,29.81,3.0,SE,4.6,-,N/A,,Mostly Cloudy,130,2011-10-12 15:21:00
10:55 AM,60.8,60.8,100,29.81,7.0,ESE,4.6,-,N/A,,Mostly Cloudy,120,2011-10-12 15:55:00
11:55 AM,60.8,60.8,100,29.87,10.0,ESE,5.8,-,N/A,,Overcast,110,2011-10-12 16:55:00
12:55 PM,68.0,64.4,88,29.77,10.0,Variable,5.8,-,N/A,,Mostly Cloudy,0,2011-10-12 17:55:00
1:55 PM,68.0,60.8,78,29.75,10.0,SE,8.1,-,N/A,,Overcast,140,2011-10-12 18:55:00
2:31 PM,66.2,59.0,78,29.74,10.0,SSE,11.5,-,N/A,Rain,Light Rain Showers,150,2011-10-12 19:31:00
2:55 PM,62.6,62.6,100,29.75,7.0,SSE,6.9,-,N/A,Rain,Light Rain Showers,150,2011-10-12 19:55:00
3:55 PM,60.8,60.8,100,29.73,7.0,Calm,Calm,-,N/A,Rain,Light Rain Showers,0,2011-10-12 20:55:00
4:55 PM,60.8,60.8,100,29.72,4.0,South,3.5,-,N/A,Rain,Light Rain,180,2011-10-12 21:55:00
5:55 PM,59.0,59.0,100,29.71,7.0,ESE,4.6,-,N/A,Rain,Light Rain,110,2011-10-12 22:55:00
6:55 PM,57.2,57.2,100,29.70,7.0,East,3.5,-,N/A,Rain,Light Rain,80,2011-10-12 23:55:00
7:55 PM,57.2,57.2,100,29.69,7.0,ESE,3.5,-,N/A,Rain,Light Rain,120,2011-10-13 00:55:00
8:55 PM,57.2,57.2,100,29.67,7.0,East,4.6,-,N/A,Rain,Light Rain,100,2011-10-13 01:55:00
9:55 PM,57.2,57.2,100,29.66,7.0,Calm,Calm,-,N/A,Rain,Light Rain,0,2011-10-13 02:55:00
10:50 PM,57.2,57.2,100,29.65,8.0,East,2.3,-,N/A,Rain,Light Rain,100,2011-10-13 03:50:00
10:55 PM,57.2,57.2,100,29.65,7.0,Calm,Calm,-,N/A,Rain,Light Rain,0,2011-10-13 03:55:00
11:13 PM,57.2,57.2,100,29.64,6.0,ESE,2.3,-,N/A,Rain,Light Rain,120,2011-10-13 04:13:00
11:31 PM,57.2,57.2,100,29.64,5.0,South,2.3,-,N/A,Rain,Light Rain,180,2011-10-13 04:31:00
11:55 PM,57.2,57.2,100,29.64,5.0,ESE,4.6,-,N/A,Rain,Light Rain,110,2011-10-13 04:55:00